CW4957 Weather Reports


Display with metric or nautical units.
time (UTC)temp
F
wind
direction
speed
MPH
gust
MPH
rain 1hr
in
rain 24hr
in
rain mn
in
humidity
%
barometer
mb
20260510160318 63 360 1.0 5.0 0.00 0.24 0.00 83 1011.0
20260510155757 62 360 1.0 5.0 0.00 0.27 0.00 85 1011.0
20260510155257 62 360 2.0 6.0 0.00 0.27 0.00 86 1011.0
20260510154757 61 360 2.0 5.0 0.00 0.27 0.00 87 1011.0
20260510154316 61 360 2.0 5.0 0.00 0.27 0.00 87 1011.0
20260510153756 60 360 2.0 5.0 0.00 0.27 0.00 88 1011.2
20260510153334 60 360 1.0 4.0 0.00 0.27 0.00 89 1011.2
20260510152810 60 360 1.0 8.0 0.00 0.27 0.00 90 1011.2
20260510152309 59 360 2.0 8.0 0.00 0.27 0.00 92 1011.2
20260510151800 59 360 2.0 5.0 0.00 0.27 0.00 93 1011.2
20260510151257 58 360 1.0 4.0 0.00 0.27 0.00 94 1011.2
20260510150757 58 360 0.0 4.0 0.00 0.27 0.00 94 1011.1
20260510150310 57 360 2.0 3.0 0.00 0.27 0.00 95 1011.1
20260510145805 57 360 0.0 4.0 0.00 0.29 0.00 95 1011.1
20260510145331 57 360 1.0 3.0 0.00 0.29 0.00 95 1011.1
20260510144812 57 360 1.0 2.0 0.00 0.29 0.00 96 1011.1
20260510144313 56 360 0.0 3.0 0.00 0.29 0.00 96 1011.1
20260510143809 56 360 1.0 3.0 0.00 0.29 0.00 97 1011.3
20260510143308 56 261 1.0 3.0 0.00 0.29 0.00 97 1011.3
20260510142821 55 306 1.0 3.0 0.00 0.29 0.00 96 1011.3
20260510142300 55 252 1.0 4.0 0.00 0.29 0.00 97 1011.5
20260510141817 55 268 2.0 4.0 0.00 0.29 0.00 97 1011.5
20260510141257 55 271 1.0 2.0 0.00 0.29 0.00 97 1011.5
20260510140813 55 360 0.0 2.0 0.00 0.29 0.00 97 1011.4
20260510140305 55 360 1.0 2.0 0.00 0.29 0.00 97 1011.4
20260510135801 54 263 1.0 2.0 0.00 0.30 0.00 97 1011.4
20260510135259 54 263 1.0 3.0 0.00 0.30 0.00 97 1011.5
20260510134759 54 264 1.0 3.0 0.00 0.30 0.00 97 1011.5
20260510134302 54 264 1.0 3.0 0.00 0.30 0.00 97 1011.5
20260510133804 54 43 1.0 3.0 0.00 0.30 0.00 97 1011.4
20260510133259 54 360 0.0 3.0 0.00 0.30 0.00 97 1011.4
20260510132822 54 277 1.0 3.0 0.00 0.30 0.00 97 1011.4
20260510132318 54 360 0.0 1.0 0.00 0.30 0.00 97 1011.5
20260510131757 53 277 0.0 1.0 0.00 0.30 0.00 97 1011.5
20260510131316 53 277 0.0 1.0 0.00 0.30 0.00 97 1011.5
20260510130812 53 277 0.0 2.0 0.00 0.30 0.00 97 1011.5
20260510130305 53 277 1.0 2.0 0.00 0.30 0.00 97 1011.5
20260510125803 53 271 0.0 2.0 0.00 0.30 0.00 97 1011.5
20260510125323 53 271 1.0 2.0 0.00 0.30 0.00 97 1011.3
20260510124816 53 269 0.0 2.0 0.00 0.30 0.00 97 1011.3
20260510124331 53 302 1.0 3.0 0.00 0.30 0.00 97 1011.3
20260510123834 53 285 1.0 3.0 0.00 0.30 0.00 97 1011.0
20260510123315 53 360 0.0 3.0 0.00 0.30 0.00 97 1011.0
20260510122813 53 297 1.0 3.0 0.00 0.30 0.00 97 1011.0
20260510122259 53 296 0.0 1.0 0.00 0.30 0.00 97 1011.3
20260510121815 53 296 0.0 3.0 0.00 0.30 0.00 97 1011.3
20260510121310 53 275 0.0 1.0 0.00 0.30 0.00 97 1011.3
20260510120804 52 273 0.0 1.0 0.00 0.30 0.00 97 1011.3
20260510120311 52 360 0.0 1.0 0.00 0.30 0.00 97 1011.3
20260510115812 52 360 0.0 1.0 0.00 0.34 0.00 97 1011.3
20260510115311 52 277 0.0 0.0 0.00 0.34 0.00 97 1011.3
20260510114806 52 277 0.0 0.0 0.00 0.34 0.00 97 1011.3
20260510114300 52 277 0.0 3.0 0.00 0.34 0.00 97 1011.3
20260510113756 52 360 1.0 3.0 0.00 0.34 0.00 97 1011.3
20260510113335 52 273 0.0 1.0 0.00 0.34 0.00 97 1011.3
20260510112812 52 360 0.0 2.0 0.00 0.34 0.00 97 1011.3
20260510112312 52 360 1.0 2.0 0.00 0.34 0.00 97 1011.0
20260510111808 52 271 0.0 3.0 0.00 0.34 0.00 97 1011.0
20260510111312 52 360 1.0 3.0 0.00 0.34 0.00 97 1011.0
20260510110802 52 44 0.0 2.0 0.00 0.34 0.00 97 1011.0
20260510110312 52 44 1.0 2.0 0.00 0.34 0.00 97 1011.0
20260510105814 52 55 0.0 2.0 0.00 0.37 0.00 97 1011.0
20260510105310 52 48 0.0 2.0 0.00 0.37 0.00 97 1010.7
20260510104814 52 32 0.0 1.0 0.00 0.37 0.00 97 1010.7
20260510104333 52 33 0.0 3.0 0.00 0.37 0.00 97 1010.7
20260510103815 52 33 0.0 3.0 0.00 0.37 0.00 97 1010.4
20260510103316 52 31 0.0 2.0 0.00 0.37 0.00 97 1010.4
20260510102814 51 31 0.0 2.0 0.00 0.37 0.00 97 1010.4
20260510102313 51 34 0.0 2.0 0.00 0.37 0.00 97 1010.4
20260510101814 51 34 1.0 2.0 0.00 0.37 0.00 97 1010.4
20260510101312 51 33 1.0 2.0 0.00 0.37 0.00 97 1010.4
20260510100807 51 57 0.0 2.0 0.00 0.37 0.00 97 1010.0
20260510100259 51 57 1.0 2.0 0.00 0.37 0.00 97 1010.0
20260510095836 51 57 0.0 1.0 0.00 0.37 0.00 97 1010.0
20260510095315 51 57 0.0 2.0 0.00 0.37 0.00 97 1009.9
20260510094813 51 57 1.0 2.0 0.00 0.37 0.00 97 1009.9
20260510094315 51 56 0.0 2.0 0.00 0.37 0.00 96 1009.9
20260510093812 51 57 0.0 0.0 0.00 0.37 0.00 96 1009.6
20260510093314 51 56 0.0 1.0 0.00 0.37 0.00 96 1009.6
20260510092812 51 56 0.0 2.0 0.00 0.37 0.00 96 1009.6
20260510092309 51 57 0.0 3.0 0.00 0.37 0.00 96 1009.4
20260510091802 51 40 0.0 3.0 0.00 0.37 0.00 96 1009.4
20260510091301 51 113 1.0 2.0 0.00 0.37 0.00 96 1009.4
20260510090819 51 113 0.0 3.0 0.00 0.37 0.00 96 1009.5
20260510090312 51 113 1.0 3.0 0.00 0.37 0.00 96 1009.5
20260510085810 51 96 1.0 2.0 0.00 0.37 0.00 96 1009.5
20260510085311 51 96 1.0 3.0 0.00 0.37 0.00 96 1009.9
20260510084813 51 96 1.0 3.0 0.00 0.37 0.00 96 1009.9
20260510084313 51 88 1.0 2.0 0.00 0.37 0.00 96 1009.9
20260510083754 51 88 1.0 2.0 0.00 0.37 0.00 96 1010.2
20260510083258 51 88 0.0 1.0 0.00 0.37 0.00 96 1010.2
20260510082759 51 88 0.0 1.0 0.00 0.37 0.00 96 1010.2
20260510082316 51 88 0.0 1.0 0.00 0.37 0.00 96 1010.2
20260510081814 51 88 0.0 2.0 0.00 0.37 0.00 96 1010.2
20260510081312 51 88 0.0 2.0 0.00 0.37 0.00 96 1010.2
20260510080813 51 88 0.0 2.0 0.00 0.37 0.00 96 1010.2
20260510080302 51 88 0.0 2.0 0.00 0.37 0.00 96 1010.2
20260510075803 51 88 0.0 2.0 0.00 0.37 0.00 96 1010.2
20260510075300 50 87 0.0 1.0 0.00 0.37 0.00 96 1010.1
20260510074802 50 87 0.0 0.0 0.00 0.37 0.00 96 1010.1
20260510074303 50 87 0.0 0.0 0.00 0.37 0.00 96 1010.1
20260510073802 50 87 0.0 0.0 0.00 0.37 0.00 96 1009.9
20260510073258 50 87 0.0 0.0 0.00 0.37 0.00 96 1009.9
20260510072759 50 87 0.0 0.0 0.00 0.37 0.00 96 1009.9
20260510072313 51 87 0.0 0.0 0.00 0.37 0.00 96 1009.9
20260510071812 51 87 0.0 0.0 0.00 0.37 0.00 96 1009.9
20260510071256 51 87 0.0 0.0 0.00 0.37 0.00 96 1009.9
20260510070815 51 87 0.0 0.0 0.00 0.37 0.00 96 1009.6
20260510070306 51 88 0.0 0.0 0.00 0.37 0.00 96 1009.6
20260510065805 51 88 0.0 0.0 0.00 0.37 0.00 96 1009.6
20260510065306 51 88 0.0 0.0 0.00 0.37 0.00 96 1009.6
20260510064800 51 88 0.0 0.0 0.00 0.37 0.00 96 1009.6
20260510064300 51 88 0.0 0.0 0.00 0.37 0.00 96 1009.6
20260510063837 51 88 0.0 0.0 0.00 0.37 0.00 96 1009.6
20260510063330 51 88 0.0 0.0 0.00 0.37 0.00 96 1009.6
20260510062805 51 89 0.0 0.0 0.00 0.37 0.00 96 1009.6
20260510062322 51 90 0.0 0.0 0.00 0.37 0.00 96 1009.6
20260510061803 51 89 0.0 0.0 0.00 0.37 0.00 96 1009.6
20260510061303 51 90 0.0 1.0 0.00 0.37 0.00 96 1009.6
20260510060800 51 90 0.0 1.0 0.00 0.37 0.00 96 1009.9
20260510060334 51 90 0.0 1.0 0.00 0.37 0.00 96 1009.9
20260510055756 51 89 0.0 2.0 0.00 0.37 0.00 96 1009.9
20260510055300 51 89 0.0 2.0 0.00 0.37 0.00 96 1009.9
20260510054804 51 89 0.0 0.0 0.00 0.37 0.00 96 1009.9
20260510054259 51 88 0.0 0.0 0.00 0.37 0.00 96 1009.9
20260510053804 51 89 0.0 0.0 0.00 0.37 0.00 96 1009.9
20260510053321 50 89 0.0 0.0 0.00 0.37 0.00 96 1009.9
20260510052800 50 89 0.0 0.0 0.00 0.37 0.00 96 1009.9
20260510052258 50 90 0.0 0.0 0.00 0.37 0.00 96 1009.9
20260510051803 50 90 0.0 0.0 0.00 0.37 0.00 96 1009.9
20260510051303 50 90 0.0 0.0 0.00 0.37 0.00 96 1009.9
20260510050805 50 90 0.0 0.0 0.00 0.37 0.00 96 1009.8
20260510050258 50 90 0.0 0.0 0.00 0.37 0.00 96 1009.8
20260510045814 50 90 0.0 0.0 0.00 0.37 0.00 96 1009.8
20260510045310 50 90 0.0 0.0 0.00 0.37 0.00 96 1010.0
20260510044802 50 90 0.0 0.0 0.00 0.37 0.00 96 1010.0
20260510044305 50 90 0.0 0.0 0.00 0.37 0.00 96 1010.0
20260510043806 50 90 0.0 0.0 0.00 0.37 0.00 96 1010.1
20260510043313 50 91 0.0 0.0 0.00 0.37 0.00 96 1010.1
20260510042812 50 90 0.0 0.0 0.00 0.37 0.00 96 1010.1
20260510042326 50 90 0.0 0.0 0.00 0.37 0.00 96 1010.0
20260510041824 50 90 0.0 0.0 0.00 0.37 0.00 96 1010.0
20260510041322 50 90 0.0 0.0 0.00 0.37 0.00 96 1010.0
20260510040802 50 90 0.0 0.0 0.00 0.37 0.00 96 1010.2
20260510040315 50 91 0.0 1.0 0.00 0.37 0.00 96 1010.2
20260510035815 50 91 0.0 0.0 0.00 0.37 0.37 96 1010.2
20260510035312 50 90 0.0 0.0 0.00 0.37 0.37 96 1010.2
20260510034809 50 91 0.0 1.0 0.00 0.37 0.37 96 1010.2
20260510034307 50 91 0.0 1.0 0.00 0.37 0.37 96 1010.2
20260510033812 50 90 0.0 1.0 0.00 0.37 0.37 96 1010.0
20260510033314 50 89 0.0 0.0 0.00 0.37 0.37 96 1010.0
20260510032811 50 91 0.0 0.0 0.00 0.37 0.37 96 1010.0
20260510032312 50 90 0.0 0.0 0.00 0.37 0.37 96 1010.0
20260510031809 50 90 0.0 0.0 0.00 0.37 0.37 96 1010.0
20260510031305 50 90 0.0 0.0 0.00 0.37 0.37 96 1010.0
20260510030804 50 88 0.0 0.0 0.00 0.37 0.37 96 1010.3
20260510030330 50 90 0.0 0.0 0.00 0.37 0.37 96 1010.3
20260510025808 50 90 0.0 0.0 0.00 0.37 0.37 96 1010.3
20260510025313 50 90 0.0 0.0 0.00 0.37 0.37 96 1010.0
20260510024810 50 90 0.0 0.0 0.00 0.37 0.37 96 1010.0
20260510024309 50 90 0.0 0.0 0.00 0.37 0.37 96 1010.0
20260510023801 50 91 0.0 0.0 0.00 0.37 0.37 96 1010.0
20260510023303 50 89 0.0 0.0 0.00 0.37 0.37 96 1010.0
20260510022802 50 90 0.0 0.0 0.00 0.37 0.37 96 1010.0
20260510022306 50 90 0.0 0.0 0.00 0.37 0.37 96 1010.4
20260510021759 50 90 0.0 0.0 0.00 0.37 0.37 96 1010.4
20260510021256 50 89 0.0 0.0 0.00 0.37 0.37 96 1010.4
20260510020828 50 90 0.0 0.0 0.00 0.37 0.37 96 1010.5
20260510020300 50 91 0.0 0.0 0.00 0.37 0.37 96 1010.5
20260510015759 50 90 0.0 0.0 0.00 0.37 0.37 96 1010.5
20260510015318 50 89 0.0 0.0 0.00 0.37 0.37 96 1010.9
20260510014800 49 88 0.0 0.0 0.00 0.37 0.37 96 1010.9
20260510014258 49 89 0.0 0.0 0.00 0.37 0.37 95 1010.9
20260510013757 49 89 0.0 0.0 0.00 0.37 0.37 95 1010.5
20260510013314 49 90 0.0 0.0 0.00 0.37 0.37 95 1010.5
20260510012812 49 88 0.0 0.0 0.00 0.37 0.37 95 1010.5
20260510012259 49 88 0.0 0.0 0.00 0.37 0.37 95 1010.5
20260510011814 49 90 0.0 0.0 0.00 0.37 0.37 95 1010.5
20260510011311 49 88 0.0 0.0 0.00 0.37 0.37 95 1010.5
20260510010810 49 90 0.0 0.0 0.00 0.37 0.37 95 1010.2
20260510010306 49 88 0.0 0.0 0.00 0.37 0.37 95 1010.2
20260510005821 49 88 0.0 0.0 0.00 0.37 0.37 95 1010.2
20260510005313 49 88 0.0 0.0 0.00 0.37 0.37 95 1010.0
20260510004811 49 88 0.0 0.0 0.00 0.37 0.37 95 1010.0
20260510004318 49 88 0.0 0.0 0.00 0.37 0.37 95 1010.0
20260510003800 49 88 0.0 0.0 0.00 0.37 0.37 95 1009.9
20260510003300 49 88 0.0 0.0 0.00 0.37 0.37 95 1009.9
20260510002813 49 88 0.0 1.0 0.00 0.37 0.37 95 1009.9
20260510002311 49 88 0.0 2.0 0.00 0.37 0.37 95 1009.5
20260510001832 49 88 0.0 3.0 0.00 0.37 0.37 95 1009.5
20260510001312 49 88 0.0 6.0 0.00 0.37 0.37 95 1009.5
20260510000755 49 96 2.0 6.0 0.00 0.37 0.37 95 1009.8
20260510000313 49 139 2.0 4.0 0.00 0.37 0.37 95 1009.8
20260509235805 49 139 0.0 0.0 0.00 0.37 0.37 95 1009.8
20260509235258 49 139 0.0 0.0 0.00 0.37 0.37 95 1010.0
20260509234756 49 139 0.0 0.0 0.00 0.37 0.37 95 1010.0
20260509234304 49 138 0.0 0.0 0.00 0.37 0.37 95 1010.0
20260509233759 49 138 0.0 0.0 0.00 0.37 0.37 95 1009.9
20260509233312 49 138 0.0 0.0 0.00 0.37 0.37 95 1009.9
20260509232811 49 139 0.0 0.0 0.00 0.37 0.37 95 1009.9
20260509232329 49 139 0.0 0.0 0.00 0.37 0.37 95 1009.8
20260509231804 49 140 0.0 0.0 0.00 0.37 0.37 95 1009.8
20260509231322 49 139 0.0 0.0 0.00 0.37 0.37 95 1009.8
20260509230801 49 139 0.0 0.0 0.00 0.37 0.37 95 1009.9
20260509230300 49 139 0.0 0.0 0.00 0.37 0.37 95 1009.9
20260509225801 49 139 0.0 0.0 0.00 0.37 0.37 95 1009.9
20260509225305 49 140 0.0 0.0 0.00 0.37 0.37 95 1009.8
20260509224759 49 140 0.0 0.0 0.00 0.37 0.37 95 1009.8
20260509224313 49 139 0.0 0.0 0.00 0.37 0.37 95 1009.8
20260509223832 49 140 0.0 0.0 0.00 0.37 0.37 95 1009.8
20260509223307 49 140 0.0 0.0 0.00 0.37 0.37 95 1009.8
20260509222820 49 139 0.0 0.0 0.00 0.37 0.37 95 1009.8
20260509222307 49 140 0.0 0.0 0.00 0.37 0.37 95 1009.7
20260509221801 49 139 0.0 0.0 0.00 0.37 0.37 95 1009.7
20260509221258 49 139 0.0 0.0 0.00 0.37 0.37 95 1009.7
20260509220807 49 140 0.0 0.0 0.00 0.37 0.37 95 1009.6
20260509220300 49 140 0.0 0.0 0.01 0.37 0.37 95 1009.6
20260509215800 49 139 0.0 0.0 0.01 0.37 0.37 95 1009.6
20260509215258 49 140 0.0 0.0 0.01 0.37 0.37 95 1009.9
20260509214759 49 140 0.0 0.0 0.01 0.37 0.37 95 1009.9
20260509214304 49 140 0.0 0.0 0.01 0.37 0.37 95 1009.9
20260509213757 49 140 0.0 0.0 0.02 0.37 0.37 95 1009.9
20260509213259 49 139 0.0 0.0 0.02 0.37 0.37 95 1009.9
20260509212757 49 138 0.0 0.0 0.02 0.37 0.37 95 1009.9
20260509212318 49 138 0.0 0.0 0.02 0.37 0.37 95 1010.2
20260509211815 49 138 0.0 0.0 0.02 0.37 0.37 95 1010.2
20260509211311 49 138 0.0 0.0 0.03 0.37 0.37 95 1010.2
20260509210808 49 138 0.0 0.0 0.03 0.37 0.37 95 1010.5
20260509210258 49 138 0.0 0.0 0.02 0.36 0.36 95 1010.5
20260509205808 49 138 0.0 0.0 0.02 0.36 0.36 95 1010.5
20260509205307 49 138 0.0 0.0 0.03 0.36 0.36 95 1010.6
20260509204822 49 138 0.0 0.0 0.03 0.36 0.36 95 1010.6
20260509204317 48 138 0.0 0.0 0.02 0.35 0.35 95 1010.6
20260509203813 48 138 0.0 0.0 0.02 0.35 0.35 95 1010.8
20260509203312 48 138 0.0 0.0 0.03 0.35 0.35 95 1010.8
20260509202809 48 138 0.0 0.0 0.03 0.35 0.35 95 1010.8
20260509202307 48 138 0.0 0.0 0.04 0.35 0.35 95 1011.0
20260509201803 48 138 0.0 0.0 0.04 0.35 0.35 95 1011.0
20260509201259 48 138 0.0 0.0 0.04 0.34 0.34 95 1011.0
20260509200758 48 138 0.0 0.0 0.05 0.34 0.34 95 1011.0
20260509200308 48 138 0.0 0.0 0.05 0.34 0.34 95 1011.0
20260509195811 48 138 0.0 0.0 0.06 0.34 0.34 95 1011.0
20260509195309 48 138 0.0 0.0 0.05 0.33 0.33 95 1010.8
20260509194811 48 138 0.0 0.0 0.06 0.33 0.33 95 1010.8
20260509194309 48 138 0.0 0.0 0.06 0.33 0.33 95 1010.8
20260509193811 48 138 0.0 0.0 0.05 0.32 0.32 95 1011.0
20260509193310 48 138 0.0 0.0 0.06 0.32 0.32 95 1011.0
20260509192809 48 138 0.0 0.0 0.06 0.32 0.32 95 1011.0
20260509192306 48 138 0.0 0.0 0.05 0.31 0.31 95 1011.1
20260509191801 48 138 0.0 0.0 0.04 0.30 0.30 95 1011.1
20260509191313 48 138 0.0 0.0 0.04 0.30 0.30 95 1011.1
20260509190815 48 138 0.0 0.0 0.04 0.29 0.29 95 1011.1
20260509190311 48 138 0.0 0.0 0.04 0.29 0.29 95 1011.1
20260509185830 48 138 0.0 0.0 0.04 0.28 0.28 95 1011.1
20260509185326 48 138 0.0 0.0 0.04 0.28 0.28 95 1011.3
20260509184802 48 138 0.0 0.0 0.03 0.27 0.27 95 1011.3
20260509184257 48 138 0.0 0.0 0.04 0.27 0.27 95 1011.3
20260509183757 48 138 0.0 0.0 0.04 0.27 0.27 95 1011.3
20260509183256 48 138 0.0 0.0 0.04 0.26 0.26 95 1011.3
20260509182756 48 138 0.0 0.0 0.04 0.26 0.26 95 1011.3
20260509182311 47 138 0.0 0.0 0.05 0.26 0.26 95 1011.5
20260509181805 47 138 0.0 0.0 0.05 0.26 0.26 95 1011.5
20260509181307 47 138 0.0 0.0 0.06 0.26 0.26 95 1011.5
20260509180822 47 138 0.0 0.0 0.05 0.25 0.25 95 1011.6
20260509180314 47 138 0.0 0.0 0.04 0.24 0.24 95 1011.6
20260509175811 47 138 0.0 0.0 0.05 0.24 0.24 95 1011.6
20260509175254 47 138 0.0 0.0 0.05 0.24 0.24 95 1011.7
20260509174814 47 138 0.0 0.0 0.05 0.23 0.23 94 1011.7
20260509174329 47 138 0.0 0.0 0.05 0.23 0.23 95 1011.7
20260509173802 47 138 0.0 0.0 0.05 0.23 0.23 95 1012.0
20260509173258 47 138 0.0 0.0 0.05 0.22 0.22 95 1012.0
20260509172801 46 138 0.0 0.0 0.05 0.22 0.22 95 1012.0
20260509172306 46 138 0.0 0.0 0.05 0.21 0.21 95 1012.2
20260509171807 46 138 0.0 0.0 0.05 0.21 0.21 95 1012.2
20260509171305 46 138 0.0 0.0 0.05 0.20 0.20 95 1012.2
20260509170824 46 138 0.0 0.0 0.05 0.20 0.20 95 1012.3
20260509170258 46 138 0.0 0.0 0.05 0.19 0.19 95 1012.3
20260509165811 46 138 0.0 0.0 0.06 0.19 0.19 95 1012.3
20260509165318 46 138 0.0 0.0 0.06 0.19 0.19 95 1012.5
20260509164801 46 138 0.0 0.0 0.06 0.18 0.18 95 1012.5
20260509164335 46 138 0.0 0.0 0.06 0.18 0.18 95 1012.5
20260509163809 46 138 0.0 0.0 0.05 0.17 0.17 95 1012.6
20260509163307 46 138 0.0 0.0 0.05 0.17 0.17 95 1012.6
20260509162824 46 138 0.0 0.0 0.05 0.16 0.16 95 1012.6
20260509162259 46 138 0.0 0.0 0.05 0.16 0.16 95 1012.6
20260509161806 46 138 0.0 0.0 0.04 0.15 0.15 95 1012.6
20260509161325 46 138 0.0 0.0 0.04 0.15 0.15 95 1012.6
20260509160802 46 138 0.0 0.0 0.04 0.14 0.14 95 1012.5